DW2802 Ogijares ES current weather conditions

sailwx.info

Wind from 159

Air temperature 23.3° C
Dewpoint 14.9° C

Last reported at 2019-Jul-22 03:00 UTC.
Time now 2019-Jul-22 03:39 UTC

Location: N 37°07' W 003°36'.
View on Google Maps.

See reports from other nearby stations

  
Tides and Currents Weather Stations Pressure Air Temp Water Temp Dewpoint Dewpoint Depression Visibility Wind Speed Wind Dir Waves Ship Positions
date/time (UTC)wind fromknots sea level pressurealtimeterstation pressurevisibilityair tempwater tempwave heightnotes
2019-Jul-22 03:00 159 23.3
2019-Jul-22 02:45 159 23.3
2019-Jul-22 02:30 159 23.3
2019-Jul-22 02:15 159 23.3
2019-Jul-22 02:00 159 23.3
2019-Jul-22 01:45 159 23.9
2019-Jul-22 01:30 159 23.9
2019-Jul-22 01:16 159 23.9
2019-Jul-22 01:02 159 24.4
2019-Jul-22 00:46 159 25.0
2019-Jul-22 00:31 159 25.6
2019-Jul-22 00:16 159 25.6
2019-Jul-22 00:01 169 25.6
2019-Jul-21 23:47 169 25.6
2019-Jul-21 23:31 169 26.1
2019-Jul-21 23:17 169 26.1
2019-Jul-21 23:01 169 26.1
2019-Jul-21 22:46 169 26.1
2019-Jul-21 22:31 215 26.7
2019-Jul-21 22:16 215 27.2
2019-Jul-21 22:01 214 27.8
2019-Jul-21 21:46 204 1 gusting 3 27.8
2019-Jul-21 21:30 202 27.8
2019-Jul-21 21:15 201 0 gusting 4 27.2
2019-Jul-21 21:00 200 2 gusting 4 27.2
2019-Jul-21 20:30 200 3 gusting 8 28.3
2019-Jul-21 20:15 196 6 gusting 12 28.3
2019-Jul-21 20:01 194 6 gusting 13 28.9
2019-Jul-21 19:45 169 10 gusting 14 28.3
2019-Jul-21 19:30 150 8 gusting 17 28.9
2019-Jul-21 19:15 156 7 gusting 15 29.4
2019-Jul-21 19:00 171 7 gusting 14 30.0
2019-Jul-21 18:45 163 7 gusting 13 30.6
2019-Jul-21 18:30 160 5 gusting 13 32.2
2019-Jul-21 18:15 204 4 gusting 6 33.3
2019-Jul-21 18:00 194 3 gusting 6 33.9
2019-Jul-21 17:45 192 3 gusting 8 33.9
2019-Jul-21 17:30 203 6 gusting 10 33.9
2019-Jul-21 17:15 205 5 gusting 8 34.4
2019-Jul-21 17:00 214 3 gusting 9 34.4
2019-Jul-21 16:45 213 6 gusting 10 34.4
2019-Jul-21 16:30 211 6 gusting 10 35.0
2019-Jul-21 16:15 211 4 gusting 8 35.0
2019-Jul-21 16:00 239 5 gusting 8 35.0
2019-Jul-21 15:45 225 1 gusting 7 35.0
2019-Jul-21 15:30 232 4 gusting 9 34.4
2019-Jul-21 15:16 217 4 gusting 11 35.0
2019-Jul-21 15:01 279 6 gusting 13 35.6
2019-Jul-21 14:46 331 5 gusting 9 35.6
2019-Jul-21 14:31 255 4 gusting 9 35.6
2019-Jul-21 14:17 009 4 gusting 10 35.6
2019-Jul-21 14:01 360 5 gusting 12 35.0
2019-Jul-21 13:46 304 2 gusting 11 35.0
2019-Jul-21 13:30 328 4 gusting 10 34.4
2019-Jul-21 13:16 300 1 gusting 8 34.4
2019-Jul-21 13:00 323 3 gusting 10 33.9
2019-Jul-21 12:46 340 6 gusting 9 33.9
2019-Jul-21 12:30 329 2 gusting 10 32.8
2019-Jul-21 12:15 311 4 gusting 12 33.3
2019-Jul-21 12:00 308 6 gusting 9 32.8
2019-Jul-21 11:45 316 2 gusting 7 31.7
2019-Jul-21 11:30 312 2 gusting 5 31.7
2019-Jul-21 11:16 319 2 gusting 5 31.1
2019-Jul-21 11:02 350 1 gusting 4 30.6
2019-Jul-21 10:46 329 1 gusting 5 30.0
2019-Jul-21 10:31 319 4 gusting 7 30.0
2019-Jul-21 10:17 300 4 gusting 7 30.0
2019-Jul-21 10:01 292 4 gusting 7 30.0
2019-Jul-21 09:46 262 2 gusting 7 28.9
2019-Jul-21 09:31 200 1 gusting 5 28.3
2019-Jul-21 09:15 198 0 gusting 4 28.3
2019-Jul-21 09:00 191 0 gusting 2 27.8
2019-Jul-21 08:45 188 3 gusting 4 27.2
2019-Jul-21 08:30 187 1 gusting 5 26.1
2019-Jul-21 08:15 184 0 gusting 4 25.6
2019-Jul-21 08:01 181 1 gusting 4 26.1
2019-Jul-21 07:45 181 25.6
2019-Jul-21 07:34 181 25.0
2019-Jul-21 07:16 181 25.0
2019-Jul-21 07:01 181 24.4
2019-Jul-21 06:46 181 23.9
2019-Jul-21 06:32 181 23.3
2019-Jul-21 06:15 181 22.8
2019-Jul-21 06:01 181 22.2
2019-Jul-21 05:46 181 22.2
2019-Jul-21 05:31 181 22.2
2019-Jul-21 05:15 181 22.2
2019-Jul-21 05:00 181 22.2
2019-Jul-21 04:46 181 22.8
2019-Jul-21 04:30 181 22.8
2019-Jul-21 04:15 181 22.8
2019-Jul-21 03:45 181 23.3
2019-Jul-21 03:30 181 23.3
2019-Jul-21 03:15 181 23.3
2019-Jul-21 03:00 181 23.3
2019-Jul-21 02:45 181 23.9
2019-Jul-21 02:30 181 23.9
2019-Jul-21 02:15 181 23.9
2019-Jul-21 02:00 181 24.4
2019-Jul-21 01:45 181 24.4
2019-Jul-21 01:30 181 24.4
2019-Jul-21 01:16 181 24.4
2019-Jul-21 01:01 181 25.0
2019-Jul-21 00:46 181 25.0
2019-Jul-21 00:32 181 25.0
2019-Jul-21 00:17 181 25.6
2019-Jul-21 00:01 181 25.6
2019-Jul-20 23:47 181 25.6
2019-Jul-20 23:31 181 25.6
2019-Jul-20 23:17 181 25.6
2019-Jul-20 23:01 181 26.1
2019-Jul-20 22:46 181 26.7
2019-Jul-20 22:31 181 27.2
2019-Jul-20 22:16 181 27.2
2019-Jul-20 22:01 181 27.2
2019-Jul-20 21:46 181 27.2
2019-Jul-20 21:31 181 1 gusting 4 27.8
2019-Jul-20 21:15 181 2 gusting 6 28.3
2019-Jul-20 21:00 180 2 gusting 6 28.3
2019-Jul-20 20:46 191 3 gusting 6 28.3
2019-Jul-20 20:30 199 3 gusting 6 28.3
2019-Jul-20 20:15 200 2 gusting 6 30.0
2019-Jul-20 20:00 200 1 gusting 3 31.1
2019-Jul-20 19:45 200 2 gusting 6 31.1
2019-Jul-20 19:30 209 2 gusting 6 30.6
2019-Jul-20 19:16 214 3 gusting 6 31.1
2019-Jul-20 19:00 213 3 gusting 6 31.7
2019-Jul-20 18:45 217 4 gusting 7 32.2
2019-Jul-20 18:30 232 3 gusting 9 33.3
2019-Jul-20 18:16 240 4 gusting 6 34.4
2019-Jul-20 18:00 238 2 gusting 6 35.0
2019-Jul-20 17:46 245 3 gusting 7 35.6
2019-Jul-20 17:30 314 2 gusting 6 36.1
2019-Jul-20 17:16 309 3 gusting 8 36.1
2019-Jul-20 17:00 301 2 gusting 6 36.1
2019-Jul-20 16:45 344 1 gusting 8 36.1
2019-Jul-20 16:30 309 0 gusting 5 36.1
2019-Jul-20 16:15 315 5 gusting 9 36.1
2019-Jul-20 16:00 287 2 gusting 7 36.1
2019-Jul-20 15:45 302 2 gusting 6 35.6
2019-Jul-20 15:30 321 36.1
2019-Jul-20 15:15 326 4 gusting 9 36.1
2019-Jul-20 15:00 332 3 gusting 9 36.1
2019-Jul-20 14:47 021 35.0
2019-Jul-20 14:32 323 2 gusting 8 35.6
2019-Jul-20 14:17 334 34.4
2019-Jul-20 14:03 015 4 gusting 9 35.0
2019-Jul-20 13:46 329 2 gusting 9 33.9
2019-Jul-20 13:31 309 33.3
2019-Jul-20 13:17 346 5 gusting 9 33.9
2019-Jul-20 13:01 304 1 gusting 6 32.8
2019-Jul-20 12:48 344 32.8
2019-Jul-20 12:31 336 6 gusting 8 32.2
2019-Jul-20 12:16 319 2 gusting 8 32.2
2019-Jul-20 12:01 290 3 gusting 6 31.7
2019-Jul-20 11:45 311 1 gusting 7 31.1
2019-Jul-20 11:31 304 1 gusting 6 31.1
2019-Jul-20 11:16 281 4 gusting 6 30.0
2019-Jul-20 11:01 275 3 gusting 6 29.4
2019-Jul-20 10:45 253 0 gusting 7 28.9
2019-Jul-20 10:30 235 28.3
2019-Jul-20 10:15 230 1 gusting 4 28.3
2019-Jul-20 10:00 232 1 gusting 4 27.2
2019-Jul-20 09:45 235 1 gusting 6 26.7
2019-Jul-20 09:31 234 1 gusting 6 26.7
2019-Jul-20 09:16 222 1 gusting 5 26.1
2019-Jul-20 09:01 220 2 gusting 5 25.6
2019-Jul-20 08:46 219 2 gusting 5 25.6
2019-Jul-20 08:31 217 1 gusting 4 25.0
2019-Jul-20 08:17 210 24.4
2019-Jul-20 08:01 202 23.9
2019-Jul-20 07:46 202 23.9
2019-Jul-20 07:30 202 23.3
2019-Jul-20 07:16 202 22.8
2019-Jul-20 07:00 202 22.8
2019-Jul-20 06:46 202 22.2
2019-Jul-20 06:30 202 22.2
2019-Jul-20 06:15 202 21.7
2019-Jul-20 06:00 202 21.1
2019-Jul-20 05:46 202 21.1
2019-Jul-20 05:31 202 21.1
2019-Jul-20 05:16 202 21.1
2019-Jul-20 05:02 202 21.1
2019-Jul-20 04:47 202 21.1
2019-Jul-20 04:31 202 21.7
2019-Jul-20 04:16 202 21.7
2019-Jul-20 04:01 202 22.2
2019-Jul-20 03:46 202 21.7
2019-Jul-20 03:31 202 22.2
2019-Jul-20 03:16 202 22.2
2019-Jul-20 03:01 202 22.2